Weather History for KPNC - April, 2013

Change the Weather History Date:

Sunday, April 21, 2013

  Actual Average Record
Temperature  
Mean Temperature 61 °F -  
Max Temperature 70 °F 76 °F 92 °F (1961)
Min Temperature 53 °F 51 °F 31 °F (1966)
Degree Days  
Heating Degree Days 4    
Growing Degree Days 11 (Base 50)    
Moisture  
Dew Point 40 °F    
Average Humidity 46    
Maximum Humidity 64    
Minimum Humidity 36    
Precipitation  
Precipitation 0.00 in - - ()
Sea Level Pressure  
Sea Level Pressure 30.10 in    
Wind  
Wind Speed 12 mph (SSE)    
Max Wind Speed 17 mph    
Max Gust Speed 28 mph    
Visibility 10 miles    
Events      
Averages and records for this station are not official NWS values.
T = Trace of Precipitation, MM = Missing Value Source: NWS Daily Summary

Daily Weather History Graph

Daily Weather History Graph

Search for Another Location

Airport or City:

Trip Planner

Search our weather history database for the weather conditions in past years. The results will help you decide how hot, cold, wet, or windy it might be!

Date:

Astronomy

Apr. 21, 2013 Rise Set
Actual Time 6:46 AM CDT 8:08 PM CDT
Civil Twilight 6:19 AM CDT 8:35 PM CDT
Nautical Twilight 5:46 AM CDT 9:08 PM CDT
Astronomical Twilight 5:12 AM CDT 9:42 PM CDT
Moon 4:01 PM CDT (4/21) 4:02 AM CDT (4/21)
Length of Visible Light 14h 16m
Length of Day
13h 22m
Waxing Gibbous, 80% of the Moon is Illuminated
Apr 21
Waxing Gibbous
Apr 25
Full
May 2
Last Quarter
May 9
New
May 17
First Quarter

Hourly Weather History & Observations

Time (CDT) Temp. Dew Point Humidity Pressure Visibility Wind Dir Wind Speed Gust Speed Precip Events Conditions
12:53 AM 61.0 °F 35.1 °F 38% 30.09 in 10.0 mi SSE 10.4 mph - N/A   Overcast
1:53 AM 59.0 °F 35.1 °F 41% 30.08 in 10.0 mi SE 12.7 mph - N/A   Mostly Cloudy
2:53 AM 57.9 °F 36.0 °F 44% 30.09 in 10.0 mi SSE 10.4 mph - N/A   Overcast
3:53 AM 57.9 °F 36.0 °F 44% 30.09 in 10.0 mi SE 12.7 mph 21.9 mph N/A   Overcast
4:53 AM 57.0 °F 37.0 °F 47% 30.12 in 10.0 mi SE 6.9 mph - N/A   Overcast
5:53 AM 55.0 °F 37.9 °F 53% 30.10 in 10.0 mi ESE 8.1 mph - N/A   Overcast
6:53 AM 53.1 °F 41.0 °F 64% 30.12 in 10.0 mi SE 10.4 mph - 0.00 in   Mostly Cloudy
7:53 AM 54.0 °F 42.1 °F 64% 30.14 in 10.0 mi SE 9.2 mph - N/A   Overcast
8:53 AM 55.0 °F 42.1 °F 62% 30.16 in 10.0 mi SSE 11.5 mph - 0.00 in   Scattered Clouds
9:53 AM 60.1 °F 42.1 °F 51% 30.16 in 10.0 mi South 17.3 mph 27.6 mph N/A   Partly Cloudy
10:53 AM 62.1 °F 39.9 °F 44% 30.17 in 10.0 mi South 17.3 mph 24.2 mph N/A   Clear
11:53 AM 64.0 °F 39.9 °F 41% 30.15 in 10.0 mi South 15.0 mph 26.5 mph N/A   Clear
12:53 PM 64.9 °F 39.0 °F 39% 30.14 in 10.0 mi South 17.3 mph 26.5 mph N/A   Clear
1:53 PM 66.9 °F 39.9 °F 37% 30.11 in 10.0 mi South 11.5 mph 25.3 mph N/A   Clear
2:53 PM 69.1 °F 43.0 °F 39% 30.09 in 10.0 mi South 10.4 mph 25.3 mph N/A   Clear
3:53 PM 69.1 °F 43.0 °F 39% 30.06 in 10.0 mi South 6.9 mph 18.4 mph N/A   Clear
4:53 PM 69.1 °F 42.1 °F 38% 30.05 in 10.0 mi SSE 15.0 mph 23.0 mph N/A   Clear
5:53 PM 69.1 °F 41.0 °F 36% 30.04 in 10.0 mi South 11.5 mph 17.3 mph N/A   Clear
6:53 PM 68.0 °F 41.0 °F 37% 30.05 in 10.0 mi South 9.2 mph - N/A   Clear
7:53 PM 64.9 °F 41.0 °F 42% 30.06 in 10.0 mi SSE 10.4 mph - N/A   Clear
8:53 PM 62.1 °F 41.0 °F 46% 30.08 in 10.0 mi SSE 10.4 mph - N/A   Clear
9:53 PM 60.1 °F 42.1 °F 51% 30.10 in 10.0 mi SSE 10.4 mph - N/A   Partly Cloudy
10:53 PM 60.1 °F 41.0 °F 49% 30.10 in 10.0 mi SSE 15.0 mph - N/A   Clear
11:53 PM 60.1 °F 42.1 °F 51% 30.09 in 10.0 mi SSE 16.1 mph - N/A   Clear